Weather History for Wichita Jabara, KS

Change the Weather History Date:

Tuesday, January 8, 2013

  Actual Average (KICT) Record (KICT)
Temperature  
Mean Temperature 44 °F 32 °F  
Max Temperature 55 °F 42 °F 75 °F (2002)
Min Temperature 33 °F 22 °F -11 °F (1979)
Degree Days  
Heating Degree Days 21 33  
Month to date heating degree days 264  
Since 1 July heating degree days 2107  
Cooling Degree Days 0 0  
Month to date cooling degree days 0  
Year to date cooling degree days 0  
Moisture  
Dew Point 30 °F    
Average Humidity 61    
Maximum Humidity 82    
Minimum Humidity 40    
Precipitation  
Precipitation 0.00 in 0.02 in 1.50 in (1891)
Month to date precipitation 0.19  
Year to date precipitation 0.19  
Snow  
Snow 0.00 in 0.10 in 5.20 in (1987)
Month to date snowfall 0.9  
Since 1 July snowfall 6.5  
Snow Depth -    
Sea Level Pressure  
Sea Level Pressure 30.04 in    
Wind  
Wind Speed 14 mph (SSW)    
Max Wind Speed 18 mph    
Max Gust Speed 30 mph    
Visibility 10 miles    
Events      
T = Trace of Precipitation, MM = Missing Value Source: NWS Daily Summary

Daily Weather History Graph

Daily Weather History Graph

Search for Another Location

Airport:

Trip Planner

Search our weather history database for the weather conditions in past years. The results will help you decide how hot, cold, wet, or windy it might be!

Date:

Astronomy

Jan. 08, 2013 Rise Set
Actual Time 7:44 AM CST 5:27 PM CST
Civil Twilight 7:15 AM CST 5:56 PM CST
Nautical Twilight 6:42 AM CST 6:28 PM CST
Astronomical Twilight 6:11 AM CST 7:00 PM CST
Moon 4:19 AM CST (1/8) 2:30 PM CST (1/8)
Length of Visible Light 10h 40m
Length of Day
9h 42m
Waning Crescent, 13% of the Moon is Illuminated
Jan 8
Waning Crescent
Jan 11
New
Jan 18
First Quarter
Jan 26
Full
Feb 3
Last Quarter

Hourly Weather History & Observations

Time (CST) Temp. Windchill Dew Point Humidity Pressure Visibility Wind Dir Wind Speed Gust Speed Precip Events Conditions
12:54 AM 37.9 °F 28.9 °F 26.1 °F 62% 30.03 in 10.0 mi SSW 16.1 mph - N/A   Clear
1:54 AM 37.0 °F 28.1 °F 27.0 °F 67% 30.03 in 10.0 mi SSW 15.0 mph - N/A   Clear
2:54 AM 35.1 °F 25.9 °F 27.0 °F 72% 30.03 in 10.0 mi South 13.8 mph - N/A   Clear
3:54 AM 36.0 °F 26.3 °F 28.0 °F 73% 30.03 in 10.0 mi South 16.1 mph - N/A   Clear
4:54 AM 34.0 °F 24.2 °F 28.0 °F 79% 30.02 in 10.0 mi South 15.0 mph 21.9 mph N/A   Clear
5:54 AM 34.0 °F 24.6 °F 28.0 °F 79% 30.02 in 10.0 mi South 13.8 mph - N/A   Clear
6:54 AM 34.0 °F 23.4 °F 28.0 °F 79% 30.02 in 10.0 mi South 17.3 mph - N/A   Clear
7:54 AM 33.1 °F 22.2 °F 28.0 °F 82% 30.01 in 10.0 mi South 17.3 mph - N/A   Clear
9:54 AM 41.0 °F 32.2 °F 30.0 °F 65% 30.04 in 10.0 mi SSW 18.4 mph 29.9 mph N/A   Clear
10:54 AM 46.0 °F 39.0 °F 30.9 °F 56% 30.02 in 10.0 mi South 17.3 mph 23.0 mph N/A   Clear
11:54 AM 48.9 °F - 32.0 °F 52% 29.99 in 10.0 mi SSW 16.1 mph 24.2 mph N/A   Clear
12:54 PM 51.1 °F - 30.9 °F 46% 29.97 in 10.0 mi SSW 17.3 mph 23.0 mph N/A   Clear
1:54 PM 53.1 °F - 32.0 °F 45% 29.97 in 10.0 mi SW 11.5 mph - N/A   Clear
2:54 PM 55.0 °F - 30.9 °F 40% 29.99 in 10.0 mi SSW 15.0 mph 20.7 mph N/A   Clear
3:54 PM 55.0 °F - 30.9 °F 40% 29.99 in 10.0 mi SSW 12.7 mph - N/A   Clear
4:54 PM 54.0 °F - 30.9 °F 41% 30.02 in 10.0 mi South 11.5 mph - N/A   Mostly Cloudy
5:54 PM 51.1 °F - 30.9 °F 46% 30.04 in 10.0 mi SSW 13.8 mph - N/A   Mostly Cloudy
6:54 PM 46.9 °F - 30.9 °F 54% 30.08 in 10.0 mi SSW 6.9 mph - N/A   Clear
7:54 PM 46.0 °F 42.5 °F 32.0 °F 58% 30.12 in 10.0 mi SW 6.9 mph - N/A   Clear
8:54 PM 41.0 °F 39.0 °F 30.9 °F 67% 30.14 in 10.0 mi West 3.5 mph - N/A   Clear
11:54 PM 34.0 °F 29.8 °F 28.0 °F 79% 30.22 in 10.0 mi North 4.6 mph - N/A   Clear